Погода Макушино

Погода Макушино : погода сейчас, прогноз погоды и архив. Всё, что Вы хотите узнать о погоде Макушино!

Поиск расширенной информации на нашем сайте:

Другие новости

Новости СМИ2

Главная страница сайта

Новости сайта

03.07.2017

Напоминаем, что на нашем специализированном сайте Метеоцентр.Азия вы можете получить высокодетализированные автоматические прогнозы погоды по пунктам России, СНГ и мира в авиационном формате (включающие направление и скорость ветра, видимость, явления погоды, количество и форму облачности, нижнюю и верхнюю границу облачности).

Рекомендуем: юрист недвижимость в Москве

Погода Макушино - сегодня

Время (UTC), дата Ветер
(°,м/с) 
Видим.   Явления Облачность Т
(°С)
Тd
(°С)
f(%) Тe
(°С)
Pmin
(гПа)
dP
(гПа)
Po
(мм)
O2
(г/м3)
Тmin Tmax R s Состояние
почвы
21 16.09.17 200 (Ю) 20000 м    ясно 
+14.3 +8.4 68 +14  1011.7  -1.6  746  284           
00 17.09.17 230 (ЮЗ) 20000 м    ясно 
+11.7 +8.3 80 +12  1012  0.1  746  287           
03 17.09.17 270 (З) 20000 м    8/1 1000 м верхняя 
[Sc|Ci fib]
+15 +10.4 74 +17  1012.4  0.6  747  283  +11.1        сухая 
06 17.09.17 300 (СЗ) 20000 м    8/0 верхняя 
[Ci fib]
+18.2 +8.8 54 +18  1012.8  0.6  747  281           
12 17.09.17 260 (З) 5{10}  20000 м    5/3 1000 м средняя, верхняя 
[Sc|Ac cast|Ci fib]
+18.5 +5 41 +19  1012.2  0.1  747  281           
18 17.09.17 240 (ЮЗ) 20000 м    ясно 
+10.1 +5.5 73 +10  1013.2  747  289           
21 17.09.17 230 (ЮЗ) 20000 м    ясно 
+8.2 +5.2 81 +8  1013  -0.3  747  291           
00 18.09.17 220 (ЮЗ) 20000 м    3/0 верхняя 
[Ci fib]
+7.2 +5 86 +6  1013.1  747  292           
03 18.09.17 240 (ЮЗ) 20000 м    9/8 1000 м кучево-дожд., верхняя 
[Cb cap|Ci sp]
+8.9 +6.4 84 +8  1012.7  -0.2  747  290  +7.1        сухая 
06 18.09.17 250 (З) 20000 м    9/8 1000 м кучево-дожд., верхняя 
[Cb cap|Ci fib]
+14.1 +7.7 65 +14  1011.8  -0.6  746  285           
18 18.09.17 300 (СЗ) 20000 м    ясно 
+6.3 +1.6 72 +5  1016.9  750  295           
21 18.09.17 260 (З) 20000 м    ясно 
+4.1 +1 80 +3  1018.1  1.1  751  298           
00 19.09.17 260 (З) 20000 м    ясно 
+2.9 +0.7 85 +2  1019.5  1.3  752  300           
06 19.09.17 290 (З) 20000 м    8/0 верхняя 
[Ci sp]
+10.9 +2.6 56 +10  1022.2  754  292           
09 19.09.17 260 (З) 20000 м    6/0 верхняя 
[Ci sp]
+13.7 +1 42 +13  1021.9  754  289           
12 19.09.17 270 (З) 4000 м  слаб. ливневой дождь  10/10 1000 м кучево-дожд. 
[Cb cap]
+11.4 +3 56 +11  1021.9  -0.1  754  291           
18 19.09.17 130 (ЮВ) 20000 м  {ливн. осадки}  6/6 1000 м кучево-дожд. 
[Cb cap]
+9.6 +6.4 80 +9  1019.5  -2.3  752  292           
21 19.09.17 140 (ЮВ) 20000 м    8/8 1000 м кучево-дожд. 
[Cb cap]
+9.6 +6 78 +10  1016.2  -3.3  749  291           
00 20.09.17 200 (Ю) 20000 м    3/3 1000 м кучево-дожд. 
[Cb cap]
+10 +6.7 80 +10  1014.4  -1.7  748  290           
03 20.09.17 220 (ЮЗ) 20000 м    8/4 1000 м кучево-дожд., верхняя 
[Cb cap|Ci sp]
+14.3 +9 70 +14  1014  -0.2  748  285  +9.1        влажная 
06 20.09.17 240 (ЮЗ) 20000 м    8/6 1000 м кучево-дожд., верхняя 
[Cb cap|Ci sp]
+21.4 +9.2 46 +22  1012.4  -1.1  747  278           
12 20.09.17 280 (З) 6{13}  20000 м    6/3 1000 м кучево-дожд., верхняя 
[Cb cap|Ci fib]
+23.9 +5.7 31 +24  1011.3  0.3  746  276           
18 20.09.17 300 (СЗ) 20000 м    ясно 
+10.8 +7.1 78 +10  1014.1  1.1  748  289           
21 20.09.17 260 (З) 20000 м    ясно 
+8.7 +6 83 +9  1014.8  0.5  748  291           
00 21.09.17 230 (ЮЗ) 20000 м    3/0 верхняя 
[Ci fib]
+8.4 +6.3 87 +8  1015.2  0.3  749  292           
Время (UTC), дата Ветер
(°,м/с) 
Видим.   Явления Облачность Т
(°С)
Тd
(°С)
f(%) Тe
(°С)
Pmin
(гПа)
dP
(гПа)
Po
(мм)
O2
(г/м3)
Тmin Tmax R s Состояние
почвы

Для получения пояснительной информации подведите курсор к названию столбца.

ПОГОДА Макушино - архив

Всё, что Вы хотите узнать о погоде Макушино - удобно и подробно!

Выберите нужную дату (начиная с 1 января 2015* года) и нажмите кнопку "Найти".
Будут отображены архивные сводки погоды по пункту Макушино, начиная с указанной даты.


Отображать данные в формате CSV (для использования в таблицах Excel)


Внимание! Наш архив погоды предназначен исключительно для личного некоммерческого использования в познавательных целях. Если Вам необходимы официальные справки о состоянии погоды (для производственных, юридических, коммерческих и т.п. целей), обращайтесь в органы Росгидромета.

*Примечание: данная дата относится к архиву по метеостанциям СССР (Россия, СНГ, Балтия).
Архив по метеостанциям Зарубежной Европы и Азии (кроме Китая) хранится 10 дней, по другим регионам земного шара (Китай, Африка, Америка, Австралия, Океания) - 1 день.

Макушино - район местоположения метеостанции


Название, широта, долгота, высота метеостанции:
Макушино 55.2°ш. 67.3°д. 140 м над ур. моря [Российская Федерация]

Дополнительная информация

В oтличие oт бoльшинства пoгoдных сайтoв мы публикуем пoдрoбную метеoинфoрмацию в детальнoм прoфессиoнальнoм фoрмате.

Характеристики температуры и влажнoсти вoздуха измеряются на высoте 2 м в тени вдали oт зданий и деревьев.
Скoрoсть ветра измеряется на высoте 10 м (на урoвне рoста челoвека скoрoсть ветра ниже в 1.5-2 раза). Если метеoстанция нахoдится в гoрoде или в лесу, тo скoрoсть ветра занижена на 2-4 м/с пo сравнению с oткрытым местoм. Скoрoсть ветра над акватoриями крупных рек и oзёр, а также на вершинах хoлмoв на 2-5 м/с выше, чем в oбычных услoвиях.
Атмoсфернoе давление в разных тoчках местнoсти мoжет значительнo oтличаться oт давления на метеoстанции, в зависимoсти oт услoвий рельефа (при пoдъёме на 10 м давление пoнижается примернo на 1 мм рт.ст.).